Theta_e
311 311 311 311 310 310 309 309 308 308 307 306 305 304 303 303 302 302 303 303 304 303 303 304 305 306 307 307 307 306 305 305 305 306 306 306 306 305 304 303 302 301 301 301 301 300 299 298 298 299 299 288
311 310 310 309 309 309 308 308 307 306 305 304 302 301 300 300 300 300 301 301 301 302 301 301 302 302 304 305 305 305 304 303 303 303 304 305 304 304 303 303 302 301 300 300 300 299 299 298 297 299 298 286
305 308 307 307 307 307 307 307 307 306 304 302 301 301 300 299 299 298 299 299 300 300 300 299 299 300 302 303 303 304 303 303 302 302 303 303 303 302 302 302 301 300 299 299 299 299 298 298 298 298 297 286
300 306 306 306 306 306 305 305 304 303 304 303 303 302 302 301 298 298 297 300 297 299 299 298 297 299 301 301 302 302 302 302 302 302 302 302 302 301 301 300 300 299 299 300 299 298 297 297 298 290 285 285
299 303 307 306 304 304 303 303 303 304 304 304 304 304 306 302 299 295 294 295 293 300 296 298 297 298 299 300 301 301 301 301 301 301 302 301 301 300 300 299 298 298 298 299 298 298 297 297 289 287 286 286
301 301 303 299 299 300 302 305 304 300 297 304 297 305 300 296 297 296 294 293 301 296 297 297 299 298 299 300 301 300 300 299 300 301 301 301 301 300 299 298 291 291 296 298 297 297 296 292 286 284 285 285
300 299 298 298 298 299 305 302 300 296 296 293 295 297 294 295 293 294 293 293 295 294 302 297 300 300 300 300 300 299 299 299 299 300 301 301 300 299 299 294 288 286 285 286 296 298 292 286 284 284 284 284
295 295 295 296 296 295 294 297 296 294 293 294 294 294 294 292 293 293 292 305 304 301 291 292 302 301 301 300 300 299 299 301 299 300 300 299 299 301 295 288 287 286 284 285 283 283 283 282 283 283 284 284
291 291 292 292 292 292 292 293 294 294 293 293 292 292 292 291 292 292 292 291 292 291 291 289 290 291 290 290 289 298 290 290 290 294 291 289 293 290 290 288 287 285 285 285 285 284 284 283 283 283 284 283
294 292 291 292 293 293 293 293 292 292 291 291 291 291 292 291 289 289 289 289 289 290 289 289 289 288 288 287 288 292 290 288 287 287 287 287 287 288 287 285 285 285 288 286 284 285 283 284 283 282 282 283
292 291 292 292 294 292 291 291 291 291 290 290 291 290 292 290 289 289 289 289 288 289 288 289 289 289 289 289 288 289 288 287 287 286 286 285 286 285 286 286 285 286 285 285 285 285 284 284 284 283 282 283
291 290 290 292 292 291 294 291 290 289 289 290 289 290 290 291 288 288 288 288 288 288 288 288 288 288 288 288 288 289 289 287 286 285 285 285 286 286 286 285 285 285 285 285 284 284 285 284 284 283 282 282
289 289 289 288 288 289 293 288 288 288 289 288 289 289 289 290 288 288 287 287 287 288 288 288 288 288 287 287 287 288 287 287 286 286 285 286 286 286 286 285 285 285 285 284 285 284 284 284 284 283 283 282
288 288 288 288 287 289 290 287 288 287 288 288 288 288 288 288 289 287 286 286 287 287 287 287 287 287 287 288 288 287 287 287 287 286 286 286 286 286 286 286 286 287 286 286 285 284 284 284 284 284 283 283
288 289 288 288 288 288 288 288 288 287 288 288 288 287 287 287 288 288 286 286 286 286 286 286 286 286 287 287 287 287 287 287 287 286 286 286 286 285 285 286 286 286 286 285 285 285 285 285 285 284 284 283
287 287 287 288 287 287 287 288 287 287 287 288 287 287 286 286 286 288 286 286 286 286 285 285 285 285 286 286 286 286 286 286 286 286 286 286 286 286 286 285 285 286 285 285 285 285 285 285 284 283 284 284
285 285 286 286 286 287 287 286 286 285 285 285 285 286 286 285 287 286 285 285 285 285 283 284 284 284 285 285 285 285 285 285 285 285 285 285 286 286 286 285 285 286 285 285 285 285 285 284 284 284 284 283
284 284 284 285 285 286 286 285 285 285 284 285 284 285 285 285 286 285 284 284 283 283 283 283 283 283 283 284 284 284 284 284 284 284 284 284 284 286 285 283 284 283 284 283 283 284 284 284 284 284 283 283
283 284 283 283 284 283 284 284 283 283 283 283 283 284 284 285 285 283 282 282 282 282 281 281 281 282 282 283 283 282 283 283 283 282 283 284 283 283 282 283 284 283 283 283 283 284 285 284 284 284 284 284
282 282 282 282 285 283 283 283 283 283 282 282 282 283 283 283 284 281 281 281 281 280 280 280 280 280 281 281 281 281 281 282 281 281 282 282 282 281 281 282 282 282 282 283 283 284 284 284 285 284 283 283
281 281 281 281 282 282 282 282 282 282 282 281 281 281 282 282 283 280 279 280 280 279 279 279 279 279 280 280 279 279 279 279 281 280 280 279 281 280 280 280 280 281 282 282 283 283 283 284 285 284 284 284
280 281 280 280 280 282 281 281 281 281 281 280 280 280 281 280 280 280 279 279 279 278 279 279 278 278 279 279 278 278 278 278 278 278 278 278 279 280 279 279 280 280 281 282 282 283 283 284 284 284 284 285
280 280 280 279 280 279 279 279 280 281 279 279 278 279 280 279 279 279 279 279 279 278 278 278 278 278 278 277 276 276 276 276 277 278 278 277 277 279 279 279 279 280 280 281 281 281 282 282 283 283 284 285
278 279 278 277 278 278 279 279 280 280 278 278 278 279 279 278 278 278 279 279 278 277 278 277 277 277 277 276 275 275 275 275 275 275 276 276 277 277 278 279 279 279 278 278 278 280 281 281 282 282 283 283
277 276 277 277 276 276 277 278 278 278 279 278 278 278 278 278 277 278 278 279 278 278 278 278 277 276 275 275 275 275 274 275 275 276 276 275 276 276 276 276 278 278 278 276 276 278 278 279 280 282 284 283
277 277 276 276 275 276 276 277 276 276 278 278 278 278 278 278 277 277 276 278 277 278 277 277 276 275 274 274 273 274 274 274 276 274 274 275 274 276 275 274 277 277 277 274 274 273 274 276 278 280 281 281
276 277 277 277 276 276 276 277 277 277 278 277 276 276 277 277 276 276 276 277 278 276 276 276 274 274 273 273 274 272 272 273 273 273 273 274 273 272 274 274 276 275 276 273 274 274 274 273 274 277 278 277
277 277 277 277 277 276 276 275 277 277 277 276 276 275 276 275 275 275 276 276 276 276 275 275 273 273 273 272 273 272 271 271 272 272 272 272 272 272 269 271 272 275 275 275 274 270 272 272 273 271 274 276
276 276 275 276 276 276 276 276 275 275 274 275 275 275 274 273 274 275 276 276 275 275 275 274 273 272 272 272 272 272 271 271 272 272 272 272 272 271 270 269 271 272 274 274 276 273 271 269 268 269 273 274
276 275 274 273 272 271 272 272 272 271 272 272 272 272 273 273 274 274 274 274 274 274 275 273 273 272 272 271 271 271 271 271 272 271 271 271 271 270 271 270 269 269 273 273 274 274 274 273 269 270 272 273
275 273 273 273 272 272 272 271 271 273 273 273 273 273 272 272 273 273 273 273 273 274 274 273 272 272 271 271 271 271 271 271 271 271 271 272 271 270 271 270 268 269 269 272 272 274 274 274 274 273 272 269
Wind_Speed
12 10 10 10 10 9 10 9 9 10 11 11 10 9 9 7 6 6 6 7 7 8 8 8 8 8 8 8 8 8 9 9 9 9 9 9 9 10 11 11 11 10 10 10 12 12 11 11 10 8 7 3
11 11 10 10 10 9 9 9 10 10 10 9 8 7 6 5 4 3 4 5 5 7 7 8 8 8 8 8 8 8 9 10 10 10 9 10 10 10 11 11 11 10 8 9 10 12 13 11 9 8 6 3
8 13 11 11 10 9 9 9 8 8 6 6 5 4 2 3 2 1 1 2 4 5 6 5 6 7 9 9 9 9 9 10 11 11 10 10 10 11 11 11 11 9 8 8 9 11 12 11 8 7 5 3
5 8 10 9 9 8 7 6 5 5 4 3 3 1 2 2 1 2 0 1 1 4 4 4 3 6 8 9 9 9 9 9 10 10 10 10 10 11 11 11 10 9 8 8 8 9 10 9 10 5 4 4
4 5 7 6 7 7 6 5 4 3 3 3 3 2 3 3 2 2 2 0 1 3 1 2 2 3 6 8 8 8 8 10 10 9 9 10 9 10 10 9 10 10 10 9 9 8 7 8 5 4 5 5
3 3 4 4 4 3 4 4 3 1 1 2 1 3 3 2 3 1 3 3 3 2 1 0 0 2 5 7 7 7 8 9 9 9 9 9 9 10 10 9 4 4 7 8 10 9 8 4 3 2 4 5
4 4 4 3 4 3 4 3 2 1 2 4 2 0 2 2 2 1 2 3 2 0 2 1 3 5 6 6 7 6 7 8 9 9 9 11 11 10 10 4 3 3 2 2 7 8 5 4 3 3 4 4
2 1 1 1 1 1 2 2 1 4 5 6 6 6 7 7 4 3 2 1 1 2 3 3 4 6 6 7 6 7 5 7 8 10 9 10 11 7 4 3 4 3 2 2 2 3 3 3 3 4 4 4
4 5 7 6 5 4 4 6 6 6 7 8 8 8 7 7 8 8 8 5 6 7 6 5 3 3 3 3 4 5 4 3 3 6 5 4 5 4 4 4 4 2 4 3 3 3 4 4 4 4 3 4
7 8 7 7 7 8 7 6 7 7 7 7 7 7 7 7 8 7 7 7 7 7 7 7 7 8 4 4 4 3 4 4 3 3 2 3 3 4 5 3 4 4 3 4 4 4 4 5 4 4 4 4
8 7 7 7 8 8 8 8 8 7 7 7 8 7 7 8 7 7 7 7 7 8 7 7 7 7 8 7 7 4 1 3 3 2 3 3 4 4 4 4 4 4 4 4 4 5 4 4 5 4 5 5
9 8 9 8 8 8 8 8 7 7 6 7 8 8 8 7 7 7 7 7 8 7 7 7 7 7 7 6 6 6 7 7 5 4 4 4 5 5 5 4 4 5 4 5 4 4 5 5 6 5 5 4
8 8 8 8 8 8 7 6 5 5 6 7 7 8 9 9 9 8 7 8 8 8 8 8 8 8 7 7 6 7 7 6 6 6 6 6 5 6 6 5 5 4 5 5 5 5 5 5 5 5 6 4
9 8 9 8 7 7 7 6 6 5 6 7 8 8 9 10 8 7 7 8 8 8 8 8 8 8 8 8 7 7 7 7 7 7 7 7 6 6 6 6 7 5 5 7 6 6 6 5 6 6 5 5
9 9 9 9 8 8 8 8 8 7 7 8 8 8 9 9 9 7 8 8 8 8 8 8 8 8 8 7 7 7 7 7 7 7 7 6 6 6 6 7 7 7 6 6 7 6 5 6 6 6 6 6
10 9 9 8 8 8 8 8 8 8 7 7 7 8 8 8 8 7 7 8 7 7 7 8 8 7 7 7 7 7 7 7 7 6 6 6 6 5 6 6 6 6 6 6 6 6 6 6 6 6 6 7
10 10 10 9 8 7 8 8 7 7 6 6 6 7 8 8 7 7 7 7 7 7 7 7 7 7 7 6 6 7 7 8 7 7 8 8 7 8 7 7 6 5 4 5 6 6 6 6 6 6 6 7
10 10 9 8 9 8 8 7 7 6 6 7 7 7 7 7 7 7 7 7 7 7 6 7 7 6 7 7 7 7 7 7 7 7 8 8 7 7 6 6 6 6 6 6 5 5 5 5 6 6 6 6
11 10 9 8 8 8 7 7 6 6 6 6 6 6 6 6 6 7 7 7 7 7 6 7 7 7 7 7 7 7 7 7 7 7 7 7 7 6 6 6 6 6 7 7 7 7 6 7 6 6 6 6
10 10 9 9 8 8 7 7 6 6 5 5 6 6 6 6 6 6 7 7 6 6 6 6 6 6 7 7 6 6 7 7 7 6 6 7 6 7 7 7 8 7 7 7 8 7 7 7 7 7 7 6
8 9 9 9 8 9 8 7 6 5 6 6 6 6 6 6 6 6 7 7 6 5 6 6 6 6 7 6 6 6 6 6 6 6 6 7 7 5 6 7 7 7 7 8 8 8 8 8 8 8 7 7
7 7 8 8 6 9 8 8 6 5 6 6 6 6 6 7 6 6 7 7 6 5 6 5 5 6 7 7 7 7 6 6 6 7 6 7 7 7 7 7 7 8 7 7 8 8 9 9 8 8 8 8
7 6 6 7 7 7 7 7 7 5 6 5 5 6 6 6 6 6 7 7 6 6 6 6 6 6 6 6 6 7 7 7 8 8 8 7 8 7 7 6 6 7 7 7 8 8 9 8 8 8 8 8
6 6 7 7 7 7 7 7 6 6 4 5 5 5 5 5 5 5 6 6 6 6 6 5 5 5 6 6 7 7 8 8 7 8 8 8 7 8 7 6 6 6 7 8 8 8 8 7 8 9 9 8
7 7 6 5 6 6 6 6 7 6 5 4 4 6 5 4 4 4 4 4 5 5 5 5 4 4 5 6 7 7 7 8 8 7 7 7 6 7 8 6 6 7 7 8 7 6 8 8 7 10 10 10
5 5 5 5 5 6 6 6 6 6 4 4 4 5 5 3 4 4 4 3 3 3 5 4 4 4 5 6 6 6 7 7 8 9 8 7 7 6 7 5 6 6 8 5 7 11 11 8 7 8 6 7
4 5 5 5 5 6 6 5 5 6 3 4 4 4 4 5 5 6 4 4 3 3 4 3 4 4 4 6 6 7 7 7 8 7 8 7 7 8 6 6 5 7 6 6 7 7 8 6 9 3 5 4
5 5 6 5 6 7 6 6 7 6 3 3 4 4 5 5 5 7 4 4 4 3 4 4 4 4 5 5 6 6 6 7 7 7 6 7 7 7 8 7 7 7 7 6 8 5 4 8 6 9 1 9
3 5 4 4 5 5 5 4 4 4 3 3 4 5 4 5 7 7 4 4 4 4 3 4 4 4 4 6 6 6 6 6 7 7 6 8 7 7 7 8 7 7 7 7 6 5 6 4 2 3 8 13
2 4 5 6 6 7 6 5 6 6 5 5 5 5 5 5 7 7 5 5 5 5 3 4 4 4 5 6 6 6 6 6 6 6 7 7 6 8 8 7 8 8 7 8 9 7 4 5 5 9 9 7
2 3 4 5 6 6 6 7 6 6 4 4 5 5 5 5 6 6 5 5 6 5 4 3 4 4 5 6 6 7 6 6 7 7 7 7 6 7 8 8 7 8 8 8 7 7 8 7 6 5 6 4
Wind_Direction
115 115 117 114 113 108 107 103 98 89 84 78 75 70 65 62 65 64 58 52 53 53 44 34 28 29 31 27 26 21 16 10 6 7 2 0 360 356 354 351 351 354 354 354 352 351 349 349 353 355 11 4
109 118 109 106 105 105 104 102 91 87 83 79 73 70 64 62 50 58 62 61 60 56 48 37 21 12 14 14 15 14 8 3 359 356 353 352 351 349 348 346 346 351 351 358 356 347 343 344 349 342 19 356
79 91 98 103 98 95 90 87 89 90 87 77 76 71 61 94 85 53 35 53 82 62 54 47 25 6 7 4 359 3 2 355 353 349 346 344 345 344 343 342 347 350 342 344 354 350 350 350 347 351 12 337
86 101 108 105 102 97 98 97 101 103 102 100 116 87 183 224 207 249 1 164 50 92 80 38 39 6 1 359 357 355 355 350 345 342 342 343 341 344 344 345 347 347 332 327 338 346 354 351 358 355 319 347
109 118 116 116 118 124 121 120 112 119 114 146 188 182 280 261 263 246 246 324 235 96 130 114 52 352 336 347 358 355 350 345 340 338 340 344 342 344 348 343 344 338 328 326 332 330 331 351 3 319 332 343
131 134 122 135 145 148 146 142 148 172 208 262 228 247 287 348 302 278 218 201 216 169 174 79 255 302 305 330 345 348 347 340 339 332 332 336 336 338 341 343 359 329 310 318 326 324 327 344 323 292 347 328
156 158 152 159 176 177 154 161 186 148 61 65 69 34 351 351 330 109 153 180 199 177 143 175 250 265 285 314 331 330 323 324 331 333 329 331 331 328 333 350 324 302 280 305 330 329 334 327 296 323 346 323
78 95 105 228 175 124 144 183 46 51 56 42 31 21 16 358 328 350 63 138 25 22 14 338 293 286 310 326 324 304 310 305 317 314 317 321 320 323 331 322 302 293 337 343 335 331 317 319 322 346 326 323
71 66 58 44 35 44 54 61 70 61 49 42 37 28 23 22 18 8 9 10 8 5 8 24 19 339 320 315 305 290 296 309 304 296 288 306 311 293 296 311 276 299 324 314 310 306 310 310 312 316 323 314
54 54 47 37 35 42 40 55 53 50 46 41 36 30 26 27 24 17 25 25 22 21 14 13 4 3 355 356 331 293 285 300 290 260 256 296 288 264 263 261 288 295 282 289 291 290 292 295 299 301 304 306
48 44 43 43 39 46 38 50 55 48 45 39 35 30 26 28 20 21 19 20 17 15 9 8 2 359 352 345 339 339 301 277 272 310 339 348 327 316 330 324 315 303 295 280 277 281 280 278 277 283 283 295
47 42 43 39 39 44 48 53 53 49 46 43 35 32 24 26 28 21 18 13 14 3 7 359 353 354 351 348 341 338 351 335 339 358 360 355 347 344 334 331 320 320 309 296 275 269 271 273 272 266 267 271
45 43 44 39 42 41 46 54 57 64 60 51 41 33 28 21 17 16 17 16 9 1 2 353 351 346 337 339 335 350 354 12 1 357 0 355 344 338 325 319 312 309 310 304 292 266 268 266 260 255 255 260
41 36 38 30 29 32 39 40 43 43 48 46 45 35 28 20 17 19 18 11 7 8 353 352 348 344 339 338 349 3 359 350 356 347 343 338 331 319 308 304 291 295 297 299 293 284 270 267 254 242 238 246
41 40 40 34 30 28 31 31 35 38 41 44 42 37 30 23 14 15 17 16 7 3 355 350 347 342 338 354 358 354 350 348 350 344 342 331 324 316 311 297 289 284 281 279 283 275 272 265 265 256 244 238
29 30 33 32 34 33 31 34 36 40 43 41 42 36 31 23 16 19 18 17 9 5 357 349 345 341 350 355 349 352 350 346 344 343 332 331 325 314 302 292 288 282 277 275 273 278 273 268 264 256 245 239
24 21 19 21 22 26 32 33 35 37 38 41 36 36 34 22 20 20 19 16 13 2 357 347 346 346 349 349 347 346 347 347 344 344 342 336 332 328 319 321 314 306 291 282 279 279 273 271 268 257 243 239
22 19 17 18 20 18 19 27 36 33 37 38 33 31 27 28 27 19 16 16 7 1 356 349 346 346 348 347 346 345 349 351 346 342 341 331 332 324 329 320 316 323 320 307 301 297 288 284 273 269 260 246
19 16 15 13 16 18 17 15 26 29 37 40 33 32 27 25 33 21 18 12 9 360 355 352 346 346 344 343 344 349 345 352 345 345 337 336 339 330 332 327 325 328 317 313 309 303 301 296 292 290 278 270
19 15 11 8 7 11 10 17 16 22 33 38 31 30 28 23 33 22 15 12 7 1 353 352 345 338 344 345 348 347 349 353 348 341 339 336 336 334 326 326 322 321 315 311 306 305 302 296 296 291 285 279
17 17 13 6 4 6 360 7 12 14 23 30 30 23 27 22 26 21 12 8 3 4 348 349 345 338 343 346 352 354 351 352 343 346 334 327 327 323 314 315 311 313 310 304 299 296 293 289 286 284 282 276
11 14 16 8 3 6 0 357 4 17 26 26 23 24 23 22 18 15 6 3 359 0 346 346 342 338 347 358 359 357 355 347 341 340 338 329 325 325 321 318 315 309 303 299 297 293 290 287 281 278 277 275
9 13 18 15 6 7 3 356 350 12 27 19 20 20 20 21 16 9 3 357 353 355 341 343 340 346 359 4 1 358 354 349 344 339 334 334 324 324 315 301 299 297 299 304 297 294 286 280 276 272 267 268
10 10 12 10 358 10 4 357 348 349 6 14 17 12 17 16 12 5 359 349 348 347 336 342 340 360 4 6 1 358 354 342 339 328 330 328 324 321 317 316 309 314 319 308 302 291 288 284 289 283 277 273
8 2 353 8 358 354 342 342 339 336 341 13 3 11 1 7 1 354 345 340 344 338 339 335 351 11 10 8 1 354 343 329 323 328 329 320 322 323 324 322 320 325 325 322 309 306 300 293 273 268 266 268
0 2 347 344 323 332 321 325 331 327 334 359 6 2 346 347 349 338 327 323 334 333 332 341 4 16 12 11 356 348 332 329 334 333 333 329 335 331 328 317 321 328 343 338 330 324 312 293 267 267 277 271
348 342 334 331 311 321 303 300 307 307 321 356 355 351 336 346 340 331 320 322 326 335 332 8 19 17 16 14 355 343 335 334 335 331 331 347 344 332 333 318 324 337 346 312 313 295 289 311 328 286 279 300
340 327 319 308 302 301 294 300 315 300 344 327 347 342 344 341 338 327 317 335 341 351 358 36 31 19 18 5 356 340 333 328 330 328 339 349 340 339 336 330 325 330 328 324 326 339 317 303 285 305 309 338
321 323 306 296 293 282 280 281 292 302 312 337 347 340 337 348 337 324 334 350 5 0 12 44 39 27 10 6 352 344 329 327 324 329 344 341 338 345 332 325 320 325 324 322 323 323 325 327 347 277 329 327
315 327 322 323 332 332 327 321 331 332 341 344 344 337 343 344 333 334 346 350 1 0 9 47 34 25 15 2 354 337 326 323 322 331 345 336 339 337 332 325 325 318 323 319 318 310 254 261 286 315 310 327
321 323 317 322 323 313 318 317 319 321 334 330 333 331 343 334 337 324 348 352 354 356 1 50 21 25 12 2 350 329 327 322 328 334 337 328 341 331 329 329 319 320 317 317 313 305 314 310 299 292 322 296